Date String (YYYY-MM-DD hh:mm:ss) UTC,Instrument flags,absolute air pressure of the measurement (hPa),sample flow rate (lpm),inlet stack bypass flow (lpm),air temperature of the measurement (°C),ambient temperature measured by the external sensor (°C),aerosol sample conditioner tube jacket temperature (°C),OPC LED temperature (°C),internal box temperature (°C),relative humidity of the measurement (%),span deviation,mass concentration of particles derived from Lorenz-Mie calculation of OPC scattering (μg/m³),mass concentration of particles derived from Lorenz-Mie calculation of OPC scattering (μg/m³),mass concentration of particles derived from Lorenz-Mie calculation of OPC scattering (μg/m³)
DateTimeUTC,F1_M11,P_M11,Q1_M11,Q2_M11,T1_M11,T2_M11,T3_M11,T4_M11,T5_M11,U1_M11,ZSPAN_M11,X0_M11,X2_M11,X1_M11
2024-01-09 10:00:00,SystemResetWarning,0821.8,5.01,000.00,018.9,018.5,000.0,027.2,020.0,5.7,0000.0,0004.27,0002.72,0002.16
2024-01-09 10:01:00,SystemResetWarning,0821.7,5.01,000.00,018.9,018.4,000.0,027.2,020.0,5.9,0000.0,0004.52,0002.89,0002.31
2024-01-09 10:02:00,SystemResetWarning,0821.7,5.00,000.00,018.8,018.2,000.0,027.2,020.0,5.9,0000.0,0004.65,0003.04,0002.48
2024-01-09 10:03:00,SystemResetWarning,0821.7,5.00,000.00,018.8,018.1,000.0,027.2,020.0,5.9,0000.0,0004.71,0003.15,0002.65
2024-01-09 10:04:00,SystemResetWarning,0821.7,5.00,000.00,018.8,018.0,000.0,027.2,020.0,6.0,0000.0,0004.92,0003.24,0002.80
2024-01-09 10:05:00,SystemResetWarning,0821.7,5.00,000.00,018.8,017.9,000.0,027.2,020.0,6.0,0000.0,0005.07,0003.33,0002.95
2024-01-09 10:06:00,SystemResetWarning,0821.7,4.99,000.00,018.8,017.8,000.0,027.2,020.0,6.2,0000.0,0005.17,0003.36,0003.03
2024-01-09 10:07:00,SystemResetWarning,0821.6,5.00,000.00,018.7,017.7,000.0,027.2,020.0,6.2,0000.0,0004.96,0003.38,0003.07
2024-01-09 10:08:00,SystemResetWarning,0821.6,5.00,000.00,018.7,017.6,000.0,027.2,020.0,6.3,0000.0,0005.39,0003.42,0003.12
2024-01-09 10:09:00,SystemResetWarning,0821.7,5.00,000.00,018.7,017.6,000.0,027.2,020.0,6.4,0000.0,0005.71,0003.46,0003.16
2024-01-09 10:10:00,SystemResetWarning,0821.7,5.00,000.00,018.7,017.5,000.0,027.2,020.0,6.5,0000.0,0006.00,0003.49,0003.17
2024-01-09 10:11:00,SystemResetWarning,0821.6,5.00,000.00,018.7,017.5,000.0,027.2,020.0,6.5,0000.0,0006.13,0003.48,0003.16
2024-01-09 10:12:00,SystemResetWarning,0821.6,5.01,000.00,018.7,017.7,000.0,027.2,020.2,6.4,0000.0,0006.12,0003.48,0003.15
2024-01-09 10:13:00,SystemResetWarning,0821.7,5.01,000.00,018.8,018.4,000.0,027.2,020.6,6.6,0000.0,0006.68,0003.47,0003.13
2024-01-09 10:14:00,SystemResetWarning,0821.6,4.99,000.00,019.0,018.9,000.0,027.2,020.7,6.5,0000.0,0006.71,0003.45,0003.09
2024-01-09 10:15:00,SystemResetWarning,0821.7,4.98,000.00,019.0,018.9,000.0,027.2,020.4,6.5,0000.0,0006.77,0003.42,0003.03
2024-01-09 10:16:00,SystemResetWarning,0821.6,5.01,000.00,019.0,018.8,000.0,027.2,020.2,6.5,0000.0,0007.01,0003.45,0003.00
2024-01-09 10:17:00,SystemResetWarning,0821.6,5.01,000.00,018.9,018.6,000.0,027.2,020.0,6.5,0000.0,0006.89,0003.42,0002.96
2024-01-09 10:18:00,SystemResetWarning,0821.6,4.98,000.00,018.9,018.4,000.0,027.2,020.0,6.5,0000.0,0006.85,0003.42,0002.96
2024-01-09 10:19:00,SystemResetWarning,0821.5,5.00,000.00,018.8,018.3,000.0,027.2,020.0,6.6,0000.0,0006.50,0003.41,0002.95
2024-01-09 10:20:00,SystemResetWarning,0821.6,5.00,000.00,018.8,018.1,000.0,027.2,020.0,6.6,0000.0,0006.28,0003.42,0002.94
2024-01-09 10:21:00,SystemResetWarning,0821.6,5.00,000.00,018.8,018.0,000.0,027.2,020.0,6.6,0000.0,0006.03,0003.40,0002.95
2024-01-09 10:22:00,SystemResetWarning,0821.7,5.00,000.00,018.8,017.9,000.0,027.2,020.0,6.7,0000.0,0005.85,0003.38,0002.95
2024-01-09 10:23:00,SystemResetWarning,0821.7,5.00,000.00,018.8,017.8,000.0,027.2,020.0,6.7,0000.0,0005.83,0003.39,0002.97
2024-01-09 10:24:00,SystemResetWarning,0821.6,5.00,000.00,018.7,017.8,000.0,027.2,020.0,6.7,0000.0,0005.49,0003.42,0003.00
2024-01-09 10:25:00,SystemResetWarning,0821.6,5.00,000.00,018.7,017.7,000.0,027.2,020.0,6.7,0000.0,0005.47,0003.43,0003.05
2024-01-09 10:26:00,SystemResetWarning,0821.6,5.00,000.00,018.7,017.6,000.0,027.2,020.0,6.7,0000.0,0005.40,0003.43,0003.07
2024-01-09 10:27:00,SystemResetWarning,0821.6,5.01,000.00,018.7,017.6,000.0,027.2,020.0,6.7,0000.0,0005.16,0003.40,0003.10
2024-01-09 10:28:00,SystemResetWarning,0821.6,5.01,000.00,018.7,017.5,000.0,027.2,020.0,6.7,0000.0,0005.44,0003.46,0003.13
2024-01-09 10:29:00,SystemResetWarning,0821.6,5.00,000.00,018.7,017.6,000.0,027.2,020.1,6.7,0000.0,0005.58,0003.50,0003.15
2024-01-09 10:30:00,SystemResetWarning,0821.6,5.00,000.00,018.8,018.3,000.0,027.2,020.5,6.8,0000.0,0005.73,0003.54,0003.17
2024-01-09 10:31:00,SystemResetWarning,0821.6,4.99,000.00,018.9,018.9,000.0,027.2,020.7,6.8,0000.0,0005.79,0003.57,0003.20
2024-01-09 10:32:00,SystemResetWarning,0821.6,4.99,000.00,019.0,018.8,000.0,027.2,020.4,6.8,0000.0,0005.88,0003.60,0003.22
2024-01-09 10:33:00,SystemResetWarning,0821.7,5.00,000.00,019.0,018.7,000.0,027.2,020.2,6.8,0000.0,0005.86,0003.62,0003.24
2024-01-09 10:34:00,SystemResetWarning,0821.9,5.01,000.00,018.9,018.6,000.0,027.2,020.1,6.9,0000.0,0005.81,0003.62,0003.27
2024-01-09 10:35:00,SystemResetWarning,0821.9,5.00,000.00,018.9,018.4,000.0,027.2,020.0,7.0,0000.0,0007.23,0003.61,0003.29
2024-01-09 10:36:00,SystemResetWarning,0822.0,5.00,000.00,018.8,018.3,000.0,027.2,020.0,7.0,0000.0,0007.25,0003.64,0003.32
2024-01-09 10:37:00,SystemResetWarning,0821.5,5.00,000.00,018.8,018.1,000.0,027.2,020.0,7.1,0000.0,0007.32,0003.67,0003.35
2024-01-09 10:38:00,SystemResetWarning,0821.6,5.00,000.00,018.8,018.0,000.0,027.2,020.0,7.1,0000.0,0007.36,0003.71,0003.37
2024-01-09 10:39:00,SystemResetWarning,0821.7,5.00,000.00,018.8,017.9,000.0,027.2,020.0,7.1,0000.0,0007.30,0003.70,0003.38
2024-01-09 10:40:00,SystemResetWarning,0821.7,4.99,000.00,018.8,017.8,000.0,027.2,020.0,7.2,0000.0,0007.16,0003.69,0003.39
2024-01-09 10:41:00,SystemResetWarning,0821.8,5.00,000.00,018.8,017.7,000.0,027.2,020.0,7.2,0000.0,0007.23,0003.70,0003.40
2024-01-09 10:42:00,SystemResetWarning,0821.9,5.00,000.00,018.7,017.7,000.0,027.2,020.0,7.2,0000.0,0007.45,0003.72,0003.41
2024-01-09 10:43:00,SystemResetWarning,0822.1,5.01,000.00,018.7,017.6,000.0,027.2,020.0,7.2,0000.0,0007.79,0003.72,0003.43
2024-01-09 10:44:00,SystemResetWarning,0822.0,5.00,000.00,018.7,017.6,000.0,027.2,020.0,7.3,0000.0,0008.17,0003.74,0003.44
2024-01-09 10:45:00,SystemResetWarning,0822.0,5.00,000.00,018.7,017.5,000.0,027.2,020.0,7.3,0000.0,0009.02,0003.77,0003.44
2024-01-09 10:46:00,SystemResetWarning,0822.0,5.00,000.00,018.7,017.9,000.0,027.2,020.3,7.3,0000.0,0008.14,0003.77,0003.45
2024-01-09 10:47:00,SystemResetWarning,0821.8,5.00,000.00,018.9,018.7,000.0,027.2,020.7,7.3,0000.0,0008.19,0003.76,0003.44
2024-01-09 10:48:00,SystemResetWarning,0821.8,5.00,000.00,019.0,019.0,000.0,027.2,020.6,7.3,0000.0,0008.21,0003.79,0003.44
2024-01-09 10:49:00,SystemResetWarning,0821.9,4.99,000.00,019.0,018.9,000.0,027.2,020.3,7.3,0000.0,0008.89,0003.79,0003.44
2024-01-09 10:50:00,SystemResetWarning,0822.0,5.00,000.00,019.0,018.7,000.0,027.2,020.2,7.4,0000.0,0009.34,0003.82,0003.44
2024-01-09 10:51:00,SystemResetWarning,0822.0,5.01,000.00,018.9,018.6,000.0,027.2,020.0,7.4,0000.0,0009.51,0003.84,0003.43
2024-01-09 10:52:00,SystemResetWarning,0822.0,5.00,000.00,018.9,018.4,000.0,027.2,020.0,7.4,0000.0,0009.54,0003.84,0003.43
2024-01-09 10:53:00,SystemResetWarning,0822.0,5.00,000.00,018.8,018.3,000.0,027.2,020.0,7.4,0000.0,0009.39,0003.82,0003.42
2024-01-09 10:54:00,SystemResetWarning,0821.8,5.00,000.00,018.8,018.1,000.0,027.2,020.0,7.4,0000.0,0009.07,0003.81,0003.40
2024-01-09 10:55:00,SystemResetWarning,0821.9,4.99,000.00,018.8,018.0,000.0,027.2,020.0,7.4,0000.0,0008.66,0003.77,0003.37
2024-01-09 10:56:00,SystemResetWarning,0822.0,5.00,000.00,018.8,017.9,000.0,027.2,020.0,7.5,0000.0,0007.84,0003.75,0003.35
2024-01-09 10:57:00,SystemResetWarning,0822.0,4.99,000.00,018.8,017.8,000.0,027.2,020.0,7.5,0000.0,0008.43,0003.77,0003.33
2024-01-09 10:58:00,SystemResetWarning,0821.8,5.00,000.00,018.7,017.7,000.0,027.2,020.0,7.4,0000.0,0008.41,0003.73,0003.31
2024-01-09 10:59:00,SystemResetWarning,0821.5,5.01,000.00,018.7,017.6,000.0,027.2,020.0,7.5,0000.0,0008.36,0003.70,0003.28
